This is the latest recevied weather packets stored in our database for station/object KU5D-13. If no packets are shown the sender has not sent any weather packets the latest 10 day(s).
| Time | Temp. | Humidity | Pressure | Rain* | Wind** | Luminosity | Snow |
|---|---|---|---|---|---|---|---|
| 1778095204 | 9.44° C | 27% | 1038.3 hPa | 0 mm | - | 0 W/m² | - |
| 1778092803 | 9.44° C | 27% | 1038.3 hPa | 0 mm | - | 0 W/m² | - |
| 1778085604 | 9.44° C | 27% | 1038.3 hPa | 0 mm | - | 0 W/m² | - |
| 1778085004 | 9.44° C | 27% | 1038.3 hPa | 0 mm | - | 0 W/m² | - |
| 1778083805 | 9.44° C | 27% | 1038.3 hPa | 0 mm | - | 0 W/m² | - |
| 1778079017 | 7.78° C | 23% | 989.6 hPa | 0 mm | - | 701 W/m² | - |
| 1778074237 | 11.67° C | 25% | 992.4 hPa | 0 mm | - | 360 W/m² | - |
| 1778071817 | 13.33° C | 27% | 994.2 hPa | 0 mm | - | 204 W/m² | - |
| 1778070617 | 14.44° C | 27% | 995.1 hPa | 0 mm | - | 139 W/m² | - |
| 1778065817 | 17.22° C | 31% | 999.4 hPa | 0 mm | - | 1 W/m² | - |
| 1778063418 | 18.89° C | 33% | 1001.8 hPa | 0 mm | - | 0 W/m² | - |
| 1778060417 | 20° C | 36% | 1004.9 hPa | 0 mm | - | 0 W/m² | - |
| 1778059217 | 20.56° C | 37% | 1006.3 hPa | 0 mm | - | 0 W/m² | - |
| 1778056237 | 21.11° C | 40% | 1009.7 hPa | 0.76 mm | - | 0 W/m² | - |
| 1778052617 | 21.11° C | 44% | 1014 hPa | 1.78 mm | - | 0 W/m² | - |
| 1778046617 | 19.44° C | 51% | 1021.3 hPa | 1.52 mm | - | 0 W/m² | - |
| 1778046018 | 18.89° C | 51% | 1022.1 hPa | 1.27 mm | - | 0 W/m² | - |
| 1778043017 | 17.78° C | 55% | 1025.7 hPa | 0 mm | - | 0 W/m² | - |
| 1778038817 | 14.44° C | 59% | 1030.8 hPa | 0 mm | - | 0 W/m² | - |
| 1778037617 | 13.89° C | 60% | 1032.2 hPa | 0 mm | - | 0 W/m² | - |
| 1778034017 | 11.11° C | 64% | 1036.2 hPa | 0 mm | - | 0 W/m² | - |
| 1778031017 | 8.33° C | 67% | 1039.4 hPa | 0 mm | - | 0 W/m² | - |
| 1778030437 | 8.33° C | 67% | 1040 hPa | 0 mm | - | 0 W/m² | - |
| 1778026817 | 5.56° C | 70% | 1043.5 hPa | 0 mm | - | 0 W/m² | - |
| 1778022018 | 2.22° C | 74% | 1047.5 hPa | 0 mm | - | 0 W/m² | - |
* Rain latest hour (hover to see other rain measurements)
** Current wind speed in m/s (hover to see current wind gust speed)